GFSSGP_925_spd_000.txt.gz
Wind_Speed
4 7 7 4 1 3 5 5 4 5 0 4 7 4 2 3 2 2 10 9 10 11 7 8 9 8 8 9 7 6 5 4 4 7 6 5 6 7 8 10 11 10 9 9 9 8 6 6 8
3 4 4 4 2 4 2 7 4 4 6 6 7 5 2 2 6 9 11 12 11 12 9 8 10 10 9 8 7 8 7 7 7 7 6 4 6 7 6 4 5 5 8 8 9 10 11 10 10
1 3 2 3 4 6 3 4 7 8 6 4 2 2 5 3 7 17 11 17 12 12 7 11 11 11 12 11 10 9 9 6 7 8 8 8 9 10 9 8 7 6 7 10 11 11 11 12 10
4 4 4 2 10 5 4 4 10 8 2 4 1 3 4 4 4 13 17 16 14 12 8 12 9 10 11 11 11 11 11 10 11 9 10 10 10 10 10 9 10 10 10 11 11 11 13 14 14
3 4 3 6 10 1 5 4 7 8 8 7 4 3 3 7 10 14 19 17 15 13 9 11 11 11 11 11 10 10 10 10 10 9 9 9 9 9 10 10 11 11 11 11 11 11 13 14 14
3 2 4 6 6 4 4 5 4 7 8 6 6 5 3 15 16 15 16 15 15 16 13 10 14 13 11 9 8 8 8 7 6 6 6 7 9 9 8 9 10 10 12 12 12 13 13 14 15
3 2 6 10 8 5 4 7 5 7 8 8 3 3 4 12 17 18 17 15 14 15 15 11 11 10 8 8 8 7 6 5 5 6 7 9 8 8 8 8 9 9 10 11 12 13 14 15 15
3 2 6 6 4 5 4 5 3 6 6 4 6 6 3 14 21 20 17 16 15 14 14 14 13 10 10 8 8 9 8 7 8 9 11 12 10 9 9 10 11 12 12 12 13 13 13 12 13
2 2 5 8 0 1 5 4 6 2 2 3 7 2 4 26 23 20 19 18 18 18 17 17 15 14 11 8 8 8 9 8 8 8 9 8 4 6 7 11 13 13 15 13 15 15 15 15 15
3 3 5 2 6 4 2 7 5 3 6 6 5 7 13 24 25 21 22 22 24 23 21 19 18 17 14 9 9 7 7 6 5 4 4 5 3 6 7 9 11 13 14 14 16 16 16 18 18
5 5 4 3 3 5 5 6 6 6 8 10 12 12 15 19 23 21 23 26 29 26 24 23 21 19 17 15 13 11 9 7 6 5 5 5 3 5 6 9 11 13 15 17 18 18 18 20 20
4 10 11 4 2 1 4 3 6 10 15 2 2 2 14 17 16 25 25 28 28 30 28 26 24 23 21 20 17 14 12 10 8 7 6 5 3 4 5 8 10 12 15 16 18 18 19 19 19
8 9 9 7 5 5 8 11 7 13 11 13 11 6 11 14 20 26 28 29 30 32 32 31 26 25 23 22 17 15 14 12 11 9 8 7 4 3 3 6 8 11 13 16 17 17 18 19 19
6 8 11 8 9 7 7 7 5 10 14 15 11 11 12 14 19 22 28 30 34 33 34 32 30 27 25 23 20 19 15 15 13 11 9 8 5 3 2 4 7 10 14 16 16 16 16 17 17
4 8 10 13 10 7 3 10 14 20 7 9 10 11 12 15 20 26 32 31 33 34 34 33 31 28 26 24 22 20 19 16 16 14 11 9 6 3 1 2 4 7 11 12 13 14 15 18 19
4 5 5 5 10 7 10 12 10 16 12 16 11 10 10 12 18 26 28 29 31 30 34 33 31 30 27 26 25 22 21 19 17 15 13 10 8 5 2 0 4 8 11 13 13 14 17 19 20
9 6 9 10 10 7 9 9 11 1 2 9 10 12 13 12 16 27 31 28 31 33 34 34 31 32 30 26 25 23 21 20 18 17 14 12 9 5 2 1 4 8 10 12 13 13 16 19 23
7 6 10 13 7 7 8 17 13 12 9 13 16 15 14 14 15 25 33 33 33 34 34 34 33 31 29 27 25 23 22 21 20 18 17 14 10 6 3 1 3 7 10 11 11 14 15 17 20
15 16 16 22 11 10 15 19 16 11 14 15 17 19 13 12 9 26 34 33 33 34 35 35 34 32 32 31 29 26 27 25 22 19 18 15 11 8 5 2 4 7 9 10 11 13 16 20 19
9 13 20 18 11 7 9 14 13 10 16 22 19 20 16 7 6 10 26 31 34 37 37 36 36 35 35 35 33 23 27 23 21 19 18 16 13 11 7 4 4 6 8 9 10 11 14 16 9
12 10 15 15 9 6 6 7 12 9 17 16 17 21 9 10 10 9 11 24 31 35 39 40 38 38 37 34 31 19 25 19 21 21 20 18 16 11 7 5 4 6 9 10 10 11 12 14 18
21 9 9 11 6 6 4 15 8 6 12 10 16 18 9 11 8 9 10 17 28 30 34 36 37 38 38 35 36 37 34 26 26 32 24 21 18 13 10 6 6 7 8 10 10 10 13 14 15
6 2 2 4 6 6 5 9 5 9 9 11 13 16 8 10 12 11 13 23 27 32 36 37 37 38 37 40 42 40 34 28 23 23 26 23 17 14 10 7 7 8 9 10 11 14 16 14 14
3 1 3 3 2 9 11 12 3 6 8 6 9 14 11 9 10 9 15 25 26 33 34 36 38 38 39 41 41 41 38 30 32 32 28 23 18 14 11 9 8 9 11 10 10 14 17 17 16
4 3 3 4 1 15 10 10 16 5 8 11 13 13 9 11 11 10 13 13 23 30 34 36 36 34 38 41 42 41 39 37 37 36 32 26 23 19 14 10 11 12 12 12 14 15 16 16 17
9 9 6 7 10 21 2 9 9 11 12 10 14 10 9 10 9 10 11 13 21 27 32 34 36 34 38 42 42 42 40 40 39 37 33 29 25 20 16 16 15 13 12 13 13 14 15 15 17
6 6 4 1 2 4 12 14 11 11 11 10 10 8 9 9 10 10 9 15 21 26 34 38 36 36 39 42 39 40 40 39 39 35 32 29 25 21 19 17 15 14 13 13 13 14 15 15 17
4 1 2 2 2 7 18 13 16 13 18 9 6 7 7 9 8 9 9 11 22 26 30 33 33 36 36 38 39 38 40 40 38 35 34 31 26 22 19 17 15 13 14 13 14 13 14 15 18
2 4 5 1 5 7 10 15 4 6 5 8 8 5 6 9 10 10 9 16 25 27 31 32 35 36 39 40 38 36 39 40 38 38 35 32 28 24 21 19 17 16 14 13 14 14 15 18 22
6 11 12 10 16 4 12 23 5 5 9 10 8 8 7 8 10 10 11 12 20 24 27 33 32 35 38 40 39 39 39 41 40 38 34 30 27 23 20 18 16 15 14 14 14 14 16 19 21

GFSSGP_925_spd_003.txt.gz
Wind_Speed
2 3 6 3 4 5 4 5 2 2 2 2 2 4 6 2 1 3 13 16 16 13 12 13 13 12 13 14 12 9 8 6 5 5 4 6 8 8 9 9 9 8 7 6 5 8 9 6 7
2 4 1 2 3 2 5 2 4 1 4 3 6 3 6 1 4 8 14 16 17 15 13 14 14 13 12 12 13 12 10 9 8 7 4 5 8 9 9 10 11 10 10 9 8 9 10 8 6
2 3 3 3 2 3 3 4 7 3 3 3 2 2 2 5 2 20 10 22 22 17 14 15 15 14 13 12 12 13 12 9 9 8 9 10 8 9 8 9 8 7 7 8 9 9 9 8 7
4 5 4 3 7 7 4 4 6 7 2 2 4 2 1 2 10 15 25 24 21 18 17 17 15 14 13 13 13 13 12 13 12 11 11 10 9 8 7 7 8 8 7 9 9 9 9 9 9
2 3 1 2 6 5 2 8 8 5 5 4 3 3 3 1 11 21 25 24 23 19 18 18 17 15 15 14 14 14 14 14 12 11 10 9 9 9 9 9 9 10 11 10 10 10 11 10 10
3 3 2 3 4 3 3 7 9 6 4 4 3 1 4 12 22 23 24 24 22 21 19 19 19 18 17 15 15 14 14 13 11 11 10 10 10 9 9 10 10 10 9 10 11 12 13 14 13
3 3 4 5 6 5 3 3 5 7 7 6 5 6 0 9 18 21 24 23 22 21 19 18 19 19 18 16 14 12 11 10 9 9 10 10 9 9 9 8 9 9 10 11 13 13 14 14 14
3 3 4 4 4 5 5 4 3 6 6 1 6 6 5 9 23 21 21 21 23 22 21 20 20 19 17 16 14 13 12 11 11 12 13 13 11 10 8 8 8 8 10 12 13 14 14 14 13
2 3 3 5 3 2 3 4 1 3 2 3 6 4 3 17 27 24 22 22 22 24 24 24 23 20 18 16 16 16 13 14 15 15 13 11 8 7 8 8 9 9 10 11 13 13 14 14 14
4 3 6 4 3 4 3 5 7 2 4 5 4 1 13 29 32 26 25 27 30 29 29 29 26 25 22 19 18 17 17 16 14 13 12 11 9 8 7 7 8 9 11 12 13 13 14 14 15
4 6 5 5 3 2 3 2 5 7 7 9 11 9 12 18 24 24 27 31 39 36 32 32 30 27 25 23 21 19 17 16 15 13 12 11 9 7 6 5 5 6 8 10 12 13 15 15 16
5 8 8 8 4 2 3 4 5 8 17 8 13 7 13 12 16 25 27 34 36 36 36 34 32 30 27 23 23 21 20 18 17 15 14 13 11 9 7 5 4 5 8 10 12 14 15 15 15
6 5 7 8 9 7 3 9 7 12 11 11 11 7 16 15 21 26 31 30 35 37 40 38 35 33 31 29 26 24 23 21 18 17 16 14 13 11 8 5 3 4 7 11 13 14 15 15 15
3 5 7 8 12 7 7 5 5 11 8 14 12 13 11 18 24 23 26 32 37 38 41 40 38 35 33 32 29 27 25 23 21 19 17 16 14 12 9 6 3 3 7 10 12 14 14 14 14
3 8 9 17 10 8 6 10 14 25 6 9 13 13 12 16 19 28 38 34 38 38 39 41 40 36 35 34 30 28 26 24 22 20 19 17 15 12 10 7 4 2 5 8 10 10 11 13 15
3 2 5 7 7 4 9 17 12 12 8 16 18 12 10 14 21 33 34 37 38 39 40 41 41 38 36 34 31 29 26 25 23 21 20 19 16 14 12 9 6 1 3 6 8 10 12 13 15
3 6 8 12 8 6 5 12 11 8 9 15 11 11 15 16 12 29 34 41 40 42 43 45 44 41 37 32 30 29 27 26 25 23 22 20 18 15 13 10 6 2 2 3 6 8 12 14 17
7 6 7 9 4 3 6 19 17 11 7 11 10 10 12 16 23 24 36 41 42 43 45 45 45 41 37 33 31 29 27 25 25 24 23 22 20 17 15 12 9 5 3 1 5 7 9 12 16
5 6 9 18 10 10 17 18 21 19 10 12 16 18 20 17 16 23 32 39 39 40 42 45 45 41 40 39 37 32 33 31 28 27 24 23 21 19 16 14 10 8 5 2 3 5 9 12 15
10 14 15 15 12 10 14 21 16 9 13 16 17 19 24 11 9 9 21 31 38 41 41 43 44 42 43 41 40 32 37 33 31 27 25 24 23 21 19 15 12 9 6 2 0 3 6 7 8
19 15 19 19 10 6 9 11 12 11 9 14 18 21 21 12 11 8 10 25 32 36 42 45 45 45 45 43 40 28 31 24 27 29 29 30 27 24 21 16 13 11 8 3 2 1 3 4 7
22 10 14 8 3 13 4 16 9 7 12 10 15 21 11 11 10 8 11 15 30 35 41 45 45 46 44 44 42 40 36 28 33 40 38 33 29 26 21 17 15 12 8 4 3 3 3 4 8
20 4 5 2 4 5 5 6 3 8 8 12 16 20 17 12 13 12 15 26 28 36 40 43 44 43 41 45 45 43 36 32 30 36 37 34 30 26 22 19 17 14 10 6 5 6 6 6 7
2 1 1 2 2 12 8 9 5 7 9 6 11 15 16 10 9 10 10 21 22 31 34 37 40 42 44 45 45 46 40 39 33 35 37 37 34 30 25 21 18 14 12 8 7 7 6 7 9
3 4 4 4 1 12 11 10 21 6 8 11 14 14 15 8 9 10 12 12 21 30 34 36 38 36 41 44 48 50 45 44 42 41 41 41 38 34 30 25 21 17 13 9 8 8 9 9 11
10 10 7 7 9 18 3 9 8 10 12 12 15 16 5 8 8 11 13 11 20 27 32 34 35 33 42 46 48 48 48 45 45 43 43 44 44 39 33 27 22 18 15 11 9 9 9 10 11
5 6 11 2 3 2 10 13 10 8 11 11 16 4 9 10 10 10 8 14 21 26 34 39 38 39 41 45 44 45 46 45 46 44 43 44 42 36 32 28 25 20 16 11 9 9 10 12 13
6 1 1 1 3 7 15 6 14 14 20 16 11 10 8 6 8 8 9 11 23 29 33 35 37 39 37 43 45 46 47 48 45 45 45 42 38 35 33 30 25 21 17 12 11 11 12 13 14
1 4 5 2 4 12 14 15 6 2 6 10 8 7 8 9 9 10 10 17 23 25 32 35 37 38 39 43 44 42 45 46 46 46 46 43 38 37 35 31 26 21 17 13 12 12 13 14 15
5 6 6 9 10 3 6 16 10 5 4 10 5 6 4 5 8 8 10 10 18 24 29 37 35 39 46 41 41 41 40 41 42 42 42 41 39 37 35 32 27 23 18 15 13 13 13 14 14

GFSSGP_925_spd_006.txt.gz
Wind_Speed
0 3 4 4 4 5 4 5 1 2 1 2 1 3 6 2 5 4 11 22 17 24 23 21 20 19 18 14 12 13 12 11 11 11 11 10 9 7 7 8 8 6 5 4 5 6 7 4 4
1 2 3 2 4 2 5 5 5 4 4 5 2 4 1 5 3 6 13 22 22 23 24 22 21 20 21 21 18 15 14 11 8 9 8 8 9 9 8 8 9 8 7 5 5 9 9 7 6
0 2 3 4 3 4 4 5 6 2 2 4 2 1 5 4 3 17 9 27 24 23 22 22 22 21 21 20 19 15 12 12 11 9 10 10 9 10 9 9 8 7 9 9 8 8 8 7 6
1 4 4 3 5 7 6 5 5 5 2 1 2 2 2 3 7 16 23 28 26 24 22 22 20 18 19 19 17 15 14 14 14 12 12 12 10 9 9 9 8 7 8 8 8 9 8 6 6
3 3 2 1 5 6 6 3 9 5 3 4 5 4 4 3 7 18 30 30 29 25 23 22 20 18 18 18 18 18 18 16 15 14 13 11 10 9 8 8 7 8 9 9 9 9 9 9 9
3 3 2 3 5 5 4 6 5 5 3 2 3 2 5 3 18 25 30 29 28 27 25 23 22 21 20 20 19 19 18 16 14 13 12 11 10 10 10 10 9 9 9 9 9 10 10 10 10
5 3 4 4 5 5 5 8 5 6 5 6 2 6 2 6 21 28 29 28 28 26 27 26 24 23 22 21 20 19 19 17 16 14 14 14 13 12 11 11 10 10 10 10 10 9 8 9 9
5 4 3 4 3 6 2 3 1 7 8 1 8 6 6 7 25 25 25 26 26 27 26 27 26 25 25 23 21 20 19 17 17 17 16 15 13 12 11 10 10 10 9 9 9 7 6 7 7
3 3 3 5 3 5 0 3 2 2 1 3 7 4 2 9 27 26 25 26 27 29 30 29 29 28 26 24 24 23 21 18 18 19 18 16 15 13 12 10 8 7 7 7 7 7 7 8 8
4 3 8 6 2 4 3 6 4 2 5 5 5 3 4 24 32 26 25 28 34 36 36 33 32 32 29 27 27 25 22 21 21 20 19 17 16 14 12 10 9 8 7 7 8 8 9 9 9
5 6 5 6 5 4 4 3 5 5 9 9 10 10 9 18 22 23 27 31 43 41 37 37 36 34 32 30 29 26 25 24 23 21 20 18 16 15 12 9 8 6 7 6 7 8 9 10 10
4 9 7 6 4 3 4 2 5 10 20 8 13 4 9 14 15 25 26 33 35 40 41 39 37 36 34 30 30 28 28 27 25 23 21 21 19 16 14 11 8 6 5 5 6 7 8 9 9
7 5 7 7 8 6 4 11 8 13 14 9 9 8 12 16 21 27 32 31 32 37 42 42 40 39 37 34 32 31 30 28 25 24 23 22 20 18 15 13 10 7 4 3 4 6 8 8 9
2 5 7 7 10 7 7 8 6 21 5 12 11 16 12 15 23 22 28 34 38 40 43 43 43 42 39 38 35 34 31 27 26 25 25 23 21 19 17 14 11 8 5 2 3 5 7 9 9
3 8 7 10 7 8 7 8 11 25 2 11 11 12 11 18 20 29 40 37 45 46 43 44 45 44 42 40 37 35 32 30 29 27 26 25 23 21 18 16 13 10 6 3 2 4 6 7 9
3 1 5 2 7 4 8 14 13 15 7 17 14 12 11 15 18 35 35 40 39 39 43 44 46 47 45 43 40 37 34 32 30 28 28 27 25 22 20 18 15 10 7 3 1 4 6 8 11
2 6 8 12 10 5 7 11 12 6 9 12 13 12 13 15 13 29 34 42 41 43 43 44 46 48 48 45 41 37 34 32 32 30 29 27 25 23 21 19 16 12 8 4 1 2 5 8 12
8 6 6 8 4 5 7 16 16 11 8 12 13 12 11 14 23 27 30 39 42 43 43 44 45 46 47 43 39 35 34 33 32 32 30 28 27 25 23 21 17 14 10 7 3 0 3 6 12
3 6 8 7 10 6 10 17 18 22 10 11 16 19 20 21 26 23 27 32 37 38 39 43 44 47 47 46 43 38 39 38 35 34 32 31 30 28 26 23 20 16 12 9 6 3 1 4 11
12 18 20 16 15 6 16 23 19 12 18 21 19 22 21 19 21 7 20 26 34 39 41 43 46 49 50 47 42 32 38 41 39 36 34 33 31 30 27 25 22 18 15 11 8 6 3 3 8
15 15 18 19 6 5 9 20 12 13 15 20 14 20 21 25 23 12 9 22 28 33 41 44 46 48 48 45 42 31 31 28 34 36 35 35 33 31 29 26 23 20 16 13 12 9 5 5 4
24 12 14 9 4 12 4 24 7 8 12 12 14 17 19 23 17 14 9 10 26 33 34 37 41 44 45 46 45 41 35 26 33 35 41 38 35 33 31 28 25 21 18 17 14 11 6 4 4
21 4 6 3 4 5 4 5 4 8 7 12 15 15 19 20 13 13 11 18 26 29 35 38 42 44 44 48 45 43 34 30 32 35 39 38 36 34 32 29 27 25 22 18 16 14 9 5 4
1 3 4 4 1 11 10 9 7 6 7 6 10 15 16 18 10 8 6 14 20 26 31 37 40 42 44 47 45 45 43 38 33 38 39 42 40 37 34 31 29 25 22 20 18 15 10 7 5
4 5 3 3 1 12 9 6 20 7 9 11 14 16 14 14 6 7 9 10 18 29 33 34 38 37 45 47 49 50 48 45 43 41 40 39 42 44 41 36 32 28 24 20 18 15 12 8 7
11 10 7 7 10 20 4 10 11 11 12 11 11 13 12 9 7 10 10 11 18 24 31 31 36 35 42 49 50 49 47 46 42 43 41 42 44 45 44 39 35 30 26 23 19 16 12 9 9
2 6 11 2 2 1 9 14 10 2 8 7 10 13 17 11 8 9 7 9 17 23 29 36 36 36 42 43 39 43 44 44 43 43 43 43 41 42 42 40 35 31 29 26 22 19 16 12 9
7 3 1 2 5 8 11 6 15 9 5 8 15 17 18 9 3 2 5 7 15 22 29 34 37 40 36 38 41 42 44 47 41 42 43 43 41 39 40 41 37 33 30 27 24 21 18 14 10
2 5 5 3 4 12 16 14 6 8 1 6 12 12 10 10 5 7 7 10 18 22 27 32 35 35 37 44 46 44 46 47 46 45 43 45 43 41 41 43 40 36 32 29 26 22 19 16 13
7 16 17 10 11 5 5 11 30 29 18 20 18 12 7 9 10 8 8 6 13 21 26 35 35 39 49 47 44 47 44 46 47 47 46 45 43 41 42 44 42 40 36 32 28 25 23 18 16

GFSSGP_925_spd_009.txt.gz
Wind_Speed
1 4 3 3 4 4 4 6 2 2 2 2 3 4 7 3 6 5 1 20 14 30 25 23 22 17 17 17 16 15 14 13 13 12 11 10 10 8 9 9 9 9 8 8 10 9 9 9 5
1 2 3 2 4 2 5 4 6 5 2 4 2 1 1 6 2 2 8 21 20 28 27 26 24 23 19 18 16 15 15 13 10 9 10 10 9 8 8 8 9 7 7 5 6 6 5 5 4
1 2 3 4 3 4 5 5 6 2 2 1 2 3 3 4 2 5 10 26 22 26 26 26 24 23 22 21 21 20 18 16 12 11 9 10 10 9 8 8 7 7 6 4 3 2 2 2 3
2 5 4 3 6 7 7 6 4 2 2 4 2 5 3 6 5 7 14 27 25 25 26 25 24 23 22 23 21 21 19 14 13 13 13 12 12 11 9 7 6 6 6 4 2 3 2 3 4
4 3 2 0 5 6 6 5 7 5 2 3 4 4 4 4 8 11 19 28 29 27 25 25 24 20 20 22 22 19 17 17 16 16 15 14 12 11 10 9 8 7 6 6 5 5 6 6 6
4 3 2 3 5 6 6 5 7 4 3 2 3 1 6 3 12 18 23 27 27 27 26 25 24 22 21 21 20 18 19 17 16 16 14 13 13 12 11 10 10 10 10 9 9 8 7 6 5
5 4 4 3 5 5 5 7 4 5 3 7 2 4 4 4 14 21 25 24 26 25 26 26 25 24 22 22 22 22 21 19 18 16 15 14 13 13 12 11 11 11 10 9 8 7 7 6 6
5 4 2 5 3 5 2 3 1 6 8 1 7 6 7 3 18 23 25 24 26 26 27 27 26 25 25 24 24 24 23 21 19 18 18 18 15 14 14 12 12 10 10 8 6 5 5 5 5
4 3 3 5 5 4 1 3 2 1 2 4 6 4 2 5 22 25 23 23 26 29 30 30 29 28 27 26 25 24 24 22 20 20 19 17 15 15 14 14 13 11 10 8 6 6 5 5 4
4 3 8 6 4 3 2 5 5 2 5 5 6 4 3 19 28 25 24 28 33 35 36 34 33 32 30 29 28 27 25 23 22 21 20 18 16 14 14 13 12 10 9 7 7 6 6 5 5
5 6 5 7 7 4 3 4 5 4 8 9 9 10 8 16 21 22 25 30 42 40 39 39 37 35 34 33 31 30 28 25 25 23 22 20 18 18 16 14 13 11 8 6 5 5 5 5 6
3 9 6 5 3 3 4 4 6 8 21 7 14 6 8 11 13 23 25 32 36 39 42 42 40 38 37 35 34 33 31 28 27 26 24 23 23 22 20 17 15 12 10 7 5 4 4 5 5
5 5 7 8 6 7 6 11 7 11 22 9 10 8 10 11 18 26 31 33 33 39 43 44 43 43 41 39 37 35 34 32 30 29 28 27 25 23 21 19 16 13 10 8 6 4 3 3 4
2 5 8 6 7 7 6 20 5 14 7 10 8 13 11 12 20 18 28 34 38 40 45 44 47 46 45 44 42 40 37 35 33 32 30 28 26 25 23 20 16 14 11 8 5 3 1 3 5
3 8 8 6 5 8 7 12 11 24 3 12 10 11 10 14 16 27 38 35 44 46 41 45 47 48 48 48 45 42 40 37 36 34 32 30 28 26 24 21 19 16 13 10 7 4 1 2 4
4 1 5 2 6 3 8 12 23 13 7 14 13 11 11 14 16 32 35 40 40 40 45 45 46 49 51 51 48 45 42 40 38 35 33 31 30 28 26 24 21 17 14 11 8 4 2 2 4
3 6 8 12 10 6 8 10 15 5 7 11 12 11 12 13 13 26 36 40 41 45 42 44 47 50 53 52 49 47 44 41 39 36 34 33 32 30 29 26 23 19 17 13 10 7 3 2 5
9 5 6 7 7 5 6 15 12 15 7 12 14 14 18 20 26 30 32 35 38 41 41 43 45 48 48 47 46 45 42 41 39 37 37 35 34 33 30 27 25 22 18 15 12 8 4 1 6
4 7 9 8 11 3 13 17 15 17 18 19 16 19 22 21 27 30 28 29 31 34 38 43 44 45 44 44 44 41 45 44 41 40 38 37 35 34 32 30 27 23 20 16 12 9 5 1 6
8 15 18 18 17 6 17 23 15 13 15 23 25 22 23 22 20 21 12 23 31 36 38 38 42 44 46 45 43 31 34 42 44 42 39 38 36 35 33 32 29 26 22 19 16 11 7 3 4
11 10 20 18 6 6 12 21 15 11 9 19 24 20 20 21 22 23 8 20 26 31 35 40 43 45 45 42 38 30 30 24 35 38 40 41 38 36 35 32 30 28 25 22 18 14 10 8 4
19 11 13 10 3 10 3 19 5 11 16 15 18 18 14 18 19 16 8 8 26 34 32 33 36 41 42 45 45 42 36 27 35 39 46 43 40 37 35 33 30 29 26 23 21 17 14 11 10
12 4 6 3 4 5 5 4 2 6 9 13 11 12 15 13 14 17 7 16 25 27 28 31 34 38 40 46 46 46 35 34 35 38 43 43 41 39 38 35 33 30 28 24 21 18 15 13 13
2 3 2 4 2 7 10 8 6 5 7 4 5 10 10 11 17 9 10 12 12 18 25 30 33 36 41 45 46 44 39 39 36 40 40 44 43 42 40 38 36 34 31 27 23 19 17 14 13
3 5 4 3 1 11 7 5 22 10 11 9 11 10 11 11 10 17 10 7 9 18 24 30 34 35 40 44 45 47 44 42 42 41 39 41 44 47 46 42 39 36 33 30 27 24 21 19 16
8 9 6 7 8 17 6 10 16 8 8 4 6 7 9 11 11 9 12 6 8 16 20 24 32 31 40 43 44 46 46 43 41 41 40 44 46 46 47 44 42 39 34 31 29 27 24 21 18
5 6 6 3 0 2 12 17 16 7 5 1 8 7 8 12 16 13 10 3 6 11 19 24 27 30 35 42 41 41 42 41 41 40 41 43 43 44 45 46 44 41 38 35 32 31 29 25 21
6 1 1 1 4 11 8 17 16 12 15 12 9 10 12 11 11 10 8 5 6 13 20 24 25 31 35 39 42 41 45 47 45 44 44 44 43 42 42 45 47 44 40 37 35 33 29 26 24
1 4 5 1 5 15 17 10 26 20 7 9 9 9 10 10 9 10 8 5 8 10 16 22 29 34 36 40 43 42 46 48 48 48 46 45 44 43 42 43 47 47 44 40 38 36 33 30 26
5 8 5 6 9 10 16 16 21 30 18 11 12 17 11 9 9 8 9 7 8 14 20 27 31 36 42 42 41 47 43 43 43 48 50 48 46 44 44 44 45 49 48 46 43 40 36 33 31

GFSSGP_925_spd_015.txt.gz
Wind_Speed
2 3 3 4 3 4 3 4 2 3 2 2 6 4 4 1 4 3 2 16 14 28 28 26 24 21 19 17 16 15 13 10 9 9 7 6 6 6 6 8 8 7 4 3 3 4 3 3 5
1 2 4 2 3 2 4 3 4 4 0 3 3 2 1 5 3 5 3 20 18 30 29 27 24 22 20 18 17 15 14 14 13 13 11 9 6 5 5 6 9 10 7 6 5 4 3 2 1
1 3 3 3 3 3 4 4 3 2 1 2 1 2 2 4 2 3 3 22 18 31 29 26 23 21 21 21 18 16 16 17 16 14 9 11 8 8 7 7 8 9 8 5 3 1 1 1 2
1 5 3 3 4 6 5 2 3 5 1 2 1 5 4 6 3 4 5 21 19 30 27 25 24 20 19 20 19 19 19 17 15 11 11 13 12 8 7 8 9 8 6 5 3 2 3 3 0
5 3 3 2 4 5 5 4 3 2 2 2 2 3 4 3 8 5 7 20 20 30 28 25 25 24 22 22 21 21 21 19 16 14 11 15 12 11 10 9 9 8 6 4 5 7 5 4 3
4 3 3 2 4 5 6 5 2 2 2 2 2 1 6 5 6 9 10 19 20 26 27 26 27 27 24 23 23 23 23 21 17 15 15 16 14 13 12 11 10 9 7 7 7 5 4 4 5
6 4 3 3 4 5 4 3 3 3 2 5 2 2 4 5 6 8 11 18 21 23 26 27 27 26 24 22 24 24 24 23 19 17 17 17 16 15 14 13 12 12 12 11 9 7 5 5 4
4 4 3 4 3 6 3 2 2 5 5 2 4 5 5 3 5 9 12 17 21 23 26 28 28 28 28 25 25 25 25 24 22 21 22 21 19 17 16 16 14 13 13 11 10 8 7 5 4
3 3 2 5 6 5 2 1 3 1 3 4 7 5 5 5 6 11 13 18 22 25 28 29 29 30 31 30 27 27 26 26 24 24 25 24 21 20 17 18 16 14 13 11 9 7 5 4 4
4 3 8 5 5 5 3 4 3 2 5 5 6 9 15 9 11 16 19 22 27 30 33 32 31 32 32 30 28 29 28 26 29 29 28 25 23 21 19 20 18 16 14 11 9 7 6 5 5
5 6 5 5 7 4 4 3 3 4 7 10 9 8 6 11 16 19 23 28 37 35 33 35 34 33 33 32 31 31 30 30 31 30 28 26 24 22 23 23 22 19 16 13 10 9 8 7 6
3 8 6 4 4 2 4 2 4 8 19 7 11 7 4 8 12 20 23 32 35 32 35 36 36 36 35 34 34 34 34 35 34 33 30 28 27 26 26 25 23 20 17 14 13 11 10 8 6
4 4 5 5 6 8 5 14 6 13 18 10 9 8 11 9 17 24 30 31 33 36 37 38 38 40 40 38 37 37 38 38 37 35 33 31 31 30 28 27 24 21 19 16 14 12 10 8 7
3 4 7 6 7 6 7 16 6 11 8 12 7 14 9 11 17 19 24 34 36 38 41 41 41 43 44 44 44 42 41 41 39 38 36 34 33 31 30 28 26 23 20 17 15 13 11 9 8
2 7 8 5 4 7 7 9 11 18 4 13 15 12 10 12 16 24 32 31 36 38 38 41 43 44 48 49 48 47 46 45 43 42 39 37 35 34 32 30 28 25 22 20 18 15 12 9 8
3 1 4 4 5 2 7 12 19 7 5 11 13 12 9 15 13 27 28 31 32 33 35 37 41 46 49 52 53 52 50 49 47 45 42 40 38 36 34 32 30 27 24 22 20 17 14 11 8
2 5 7 9 9 4 7 9 8 5 5 13 16 19 19 18 21 24 26 29 32 34 34 36 39 44 49 52 51 51 52 51 51 49 46 43 40 39 37 35 32 29 27 25 22 20 16 13 10
8 5 5 6 6 7 7 15 15 15 16 23 22 19 20 16 22 27 23 24 26 28 31 34 37 41 44 45 43 45 50 50 52 52 51 47 44 42 39 37 34 32 29 27 25 22 19 15 12
3 5 6 8 8 4 22 19 15 15 16 23 24 21 14 15 18 14 20 21 21 24 28 32 34 39 40 41 38 38 46 49 53 54 54 50 47 45 43 41 37 35 34 32 28 25 20 17 16
7 10 14 8 10 4 12 20 20 22 20 20 23 19 10 11 14 13 20 22 21 23 25 29 34 37 42 41 40 29 33 34 43 49 52 51 50 48 47 44 41 40 37 33 32 30 23 14 20
5 6 10 10 6 6 7 8 4 7 5 7 13 8 9 7 11 10 10 17 17 21 27 26 32 35 38 39 34 31 22 25 34 43 48 52 52 51 50 47 45 43 40 39 37 34 28 20 20
9 10 11 6 4 4 5 9 5 8 10 2 7 7 8 7 4 5 9 19 25 24 18 20 23 30 33 36 34 37 32 24 31 35 40 49 52 53 51 50 48 46 44 42 40 37 33 25 20
10 1 2 2 3 3 3 4 6 3 6 7 4 5 2 2 7 7 14 24 29 29 23 15 11 19 25 33 35 35 30 26 22 30 36 43 48 50 50 50 48 46 45 44 41 39 37 30 26
3 3 5 4 2 5 10 8 1 4 4 1 8 2 3 5 11 15 22 23 25 32 24 18 9 7 16 23 28 30 27 24 23 28 32 38 45 50 48 48 47 46 46 46 44 41 39 35 28
2 4 4 4 1 7 3 3 5 5 5 5 6 9 8 9 8 16 19 21 25 26 32 27 20 11 9 15 23 27 28 28 30 31 30 33 38 46 53 52 50 49 48 47 46 43 42 40 37
7 8 5 6 6 12 2 9 7 8 2 6 2 4 7 20 17 17 16 22 29 33 34 36 28 21 15 13 16 22 27 28 29 29 30 34 38 45 48 53 51 51 50 47 44 43 43 42 40
4 6 5 2 3 2 8 12 14 5 5 7 11 17 16 14 14 16 21 28 30 33 38 38 35 29 23 18 19 20 24 27 31 31 30 33 35 37 42 49 54 54 52 50 48 48 47 44 41
7 3 1 1 3 9 6 5 13 6 9 14 15 13 14 15 16 14 14 21 26 29 31 35 37 35 35 31 24 23 24 26 31 32 33 35 36 36 37 42 48 52 53 52 51 50 49 47 45
1 4 4 3 4 5 7 8 4 8 12 8 5 7 9 11 11 11 13 21 24 28 30 29 31 33 35 35 36 27 23 26 28 31 34 36 36 36 38 40 43 47 50 52 52 49 50 50 47
3 7 8 5 7 5 6 8 14 13 11 9 9 11 11 10 11 10 14 17 20 21 24 27 30 30 33 36 36 34 34 25 25 30 33 35 37 38 39 41 42 46 48 51 54 50 49 51 50

GFSSGP_925_spd_021.txt.gz
Wind_Speed
4 5 6 7 6 3 3 3 4 3 2 4 3 6 10 10 8 4 2 6 4 16 20 27 24 23 21 18 17 15 14 14 13 13 12 11 9 8 8 8 7 7 6 4 4 6 5 4 2
3 4 6 4 5 5 6 4 0 6 6 4 5 6 6 5 3 1 2 8 8 16 18 22 26 24 21 19 18 16 15 13 12 12 11 10 9 8 7 9 7 5 3 2 3 2 1 1 1
2 3 4 3 4 6 5 3 4 5 4 4 4 2 7 3 1 3 2 9 11 17 18 20 24 24 23 21 19 16 15 14 12 12 11 9 8 7 5 6 8 8 6 2 1 2 3 4 4
4 5 4 5 6 6 4 8 8 7 2 1 4 8 3 4 2 2 2 9 11 16 18 20 24 25 23 22 20 18 16 15 15 15 13 11 10 7 6 4 6 7 7 4 4 3 4 3 4
4 3 4 4 7 3 4 5 5 6 3 2 2 4 6 4 3 3 3 10 11 15 17 18 25 28 25 23 21 19 18 17 17 16 15 13 10 8 5 6 6 8 6 5 4 4 3 2 1
4 4 5 6 4 4 2 2 4 4 2 1 4 8 5 6 4 5 6 10 11 15 17 18 22 28 27 25 23 22 20 18 20 18 16 14 11 10 8 8 8 7 6 5 6 5 4 3 2
5 5 8 8 9 6 0 0 4 4 5 6 3 7 5 7 4 4 6 9 12 14 17 17 18 25 25 25 25 25 23 21 22 22 19 16 12 11 11 9 9 8 7 8 7 6 5 3 3
4 3 6 4 6 8 3 2 4 7 11 2 3 5 5 9 4 4 6 9 12 15 18 19 19 20 20 21 25 25 25 25 25 24 22 16 14 14 14 13 12 9 9 9 8 8 6 3 2
2 5 7 8 7 2 4 6 5 5 10 13 8 13 15 2 1 4 7 10 13 17 19 20 20 21 21 21 21 25 25 27 26 24 23 18 15 14 14 13 13 12 12 11 10 9 7 3 2
6 8 9 6 9 9 11 10 11 11 13 18 15 17 15 15 11 13 14 15 17 18 21 22 22 23 23 23 22 24 26 24 26 23 21 20 17 16 15 14 17 15 16 13 11 11 7 4 1
5 9 12 12 12 14 13 14 15 13 17 16 13 13 14 16 14 17 19 20 19 19 19 22 23 24 25 26 25 24 30 29 26 26 24 22 20 18 20 16 19 17 18 12 13 12 8 7 6
9 13 14 16 10 7 14 17 14 15 22 20 20 19 18 16 16 17 19 18 18 19 20 23 25 26 27 26 26 25 25 28 27 27 27 23 23 22 21 19 19 19 18 14 13 12 11 9 8
14 14 15 13 15 14 17 21 19 22 22 23 21 18 16 16 18 19 17 17 17 21 23 25 27 29 28 29 27 28 28 28 28 27 28 28 27 24 23 21 21 20 18 17 16 13 12 11 9
12 12 16 18 17 16 17 22 16 23 16 15 14 16 16 16 17 16 13 16 18 22 23 23 26 28 27 30 30 28 28 27 28 27 28 32 28 26 26 24 23 21 20 18 17 15 14 12 11
9 13 16 20 20 12 6 16 14 18 13 11 17 17 18 19 20 18 22 22 21 20 19 22 26 27 30 31 30 29 27 28 27 28 28 31 29 27 26 25 24 21 21 19 18 16 14 13 11
10 13 13 6 3 2 7 15 18 7 9 17 20 23 20 21 19 21 22 24 19 18 17 17 20 24 29 30 29 28 27 26 25 26 26 27 29 26 27 26 26 25 25 25 22 20 17 14 12
13 14 18 15 11 2 11 13 14 20 21 24 24 21 18 18 16 12 14 15 16 14 15 15 17 21 23 25 26 25 24 26 25 25 25 27 30 28 26 24 25 27 27 26 24 22 21 18 15
17 19 20 15 17 14 17 22 20 21 21 24 23 20 15 12 10 16 19 17 14 12 10 8 9 12 17 19 21 22 22 22 23 24 24 24 27 28 26 24 24 27 25 23 23 22 20 18 17
20 21 23 21 20 22 21 21 20 20 23 23 19 15 8 5 14 18 21 22 21 20 18 14 7 7 10 14 16 17 19 19 21 22 21 22 23 27 29 25 25 28 26 25 25 22 22 18 19
18 21 21 20 17 13 17 21 25 21 19 14 12 10 4 11 14 17 23 26 28 26 24 19 13 7 5 9 9 12 11 16 17 17 19 21 23 24 27 27 28 30 27 25 26 24 21 16 25
18 19 22 22 18 17 13 15 12 10 19 10 7 12 16 14 14 14 19 23 23 25 25 24 20 12 5 2 4 6 7 5 9 13 16 17 21 23 27 29 28 31 34 33 34 32 28 20 25
15 12 7 12 9 10 7 11 11 17 12 9 13 14 14 14 14 13 16 23 25 24 21 21 21 19 15 8 2 3 6 8 7 10 11 14 18 21 24 27 30 32 36 30 33 34 31 25 21
8 2 7 8 11 16 14 9 5 15 8 13 12 12 12 13 13 15 19 23 23 23 24 24 23 22 21 17 9 6 5 8 8 6 5 11 14 20 23 26 28 28 30 34 37 37 37 29 23
6 7 14 13 8 8 6 6 4 4 5 12 10 10 11 11 12 13 15 15 17 17 18 20 22 26 25 20 16 13 11 9 9 9 10 9 12 16 21 25 26 27 28 30 35 39 40 38 31
6 8 7 8 8 13 5 6 9 6 3 5 10 8 9 10 10 11 11 12 14 16 17 22 25 29 27 27 21 16 13 13 12 10 10 10 11 12 15 19 24 27 28 28 30 33 37 40 37
10 9 7 10 14 16 8 12 10 5 12 12 10 10 9 8 8 8 10 12 13 16 22 22 24 23 23 22 21 22 20 15 12 12 13 11 13 11 13 16 21 25 27 27 28 31 33 32 34
5 7 8 6 11 8 14 23 18 12 12 9 10 9 8 7 6 8 12 16 16 17 17 18 20 21 20 19 18 19 20 21 18 14 13 13 14 14 13 14 17 22 25 27 28 29 30 33 36
6 5 7 4 5 15 12 18 13 7 12 10 7 7 6 8 10 10 12 13 13 14 16 19 20 19 18 18 17 17 17 18 18 18 19 18 16 15 16 15 15 20 22 26 28 29 29 31 32
10 10 11 12 11 13 16 13 8 9 8 7 7 7 7 8 8 8 8 11 12 14 17 18 18 18 19 17 17 17 17 16 17 18 18 21 20 18 16 17 17 18 22 23 26 28 29 31 32
14 15 16 12 9 11 13 12 10 8 7 5 4 5 5 5 6 6 6 8 13 15 16 15 14 15 16 16 15 14 15 17 19 20 22 25 23 22 19 17 16 17 19 22 26 27 29 30 30

GFSSGP_925_spd_024.txt.gz
Wind_Speed
6 9 9 7 1 3 2 5 2 8 6 4 3 4 4 5 4 1 6 9 10 17 17 26 24 22 20 18 16 14 13 13 11 10 9 9 8 9 10 8 6 7 5 4 4 5 5 4 4
2 8 5 3 2 2 4 3 9 5 3 3 3 4 3 2 5 7 6 8 11 19 19 27 24 23 21 19 18 17 17 15 13 14 11 10 9 8 8 9 7 6 5 3 3 3 3 2 2
4 6 2 2 3 4 3 5 6 3 7 1 3 2 1 2 6 4 5 9 13 18 18 27 27 25 23 20 19 18 17 15 15 13 11 11 10 10 9 9 10 6 4 3 2 1 1 1 2
5 4 3 1 4 4 5 7 8 7 4 4 4 7 4 4 2 5 6 10 14 18 17 21 25 27 25 23 20 19 17 17 16 16 15 13 12 11 9 8 7 7 7 3 2 2 2 2 3
5 3 3 3 6 3 3 5 4 4 3 1 2 4 7 4 6 4 6 10 14 16 18 19 22 26 25 25 23 21 19 18 18 18 16 15 15 10 8 8 9 8 8 4 3 4 3 2 1
3 1 3 4 7 5 5 6 3 4 0 4 2 4 2 10 8 6 7 10 12 16 18 18 22 24 25 25 24 22 21 20 19 20 18 17 13 12 8 8 8 9 8 6 5 4 2 2 3
2 2 5 5 7 3 4 3 3 5 7 4 3 4 3 5 6 5 6 8 11 14 19 19 19 24 28 25 24 24 23 21 20 22 21 19 17 15 11 10 10 9 7 7 6 5 5 5 4
3 1 5 4 3 5 5 1 2 5 7 1 3 4 1 4 6 3 5 7 11 13 17 20 19 21 31 30 28 26 25 23 22 24 23 20 17 17 13 13 13 10 9 9 9 7 6 5 5
2 2 4 6 1 2 7 3 4 4 5 6 6 6 8 11 6 4 6 8 11 14 18 20 22 21 26 28 29 28 27 25 24 26 24 22 19 18 15 14 14 12 12 11 10 9 7 5 4
2 3 5 7 7 7 10 8 8 7 8 9 8 11 24 13 12 11 11 13 17 19 22 24 25 25 24 24 23 25 27 26 27 27 26 23 19 17 15 14 15 14 15 13 12 11 8 6 4
4 4 6 9 9 7 7 9 7 8 8 10 11 13 9 10 5 14 15 18 19 25 25 27 26 26 25 26 24 25 27 27 29 29 28 24 20 18 15 16 16 17 18 16 14 13 10 8 6
6 7 8 9 6 3 4 9 10 11 12 11 12 11 8 10 8 9 13 18 21 21 24 27 27 27 27 26 27 24 26 30 27 29 28 27 23 21 23 23 21 21 21 18 17 14 12 12 11
7 9 10 10 6 7 7 8 9 18 17 13 14 11 9 9 10 14 19 19 13 17 20 22 29 29 29 30 28 28 26 26 33 27 29 31 29 26 26 25 22 23 22 21 19 17 16 14 12
7 8 9 9 14 11 9 8 5 12 12 12 11 9 9 10 9 10 8 13 16 20 21 20 23 29 30 30 31 29 29 26 26 32 29 31 32 30 29 27 24 24 24 23 23 21 19 16 14
7 5 9 13 9 7 6 8 9 14 6 9 9 9 9 8 15 15 16 18 15 17 15 17 20 23 29 30 29 30 26 27 27 28 29 30 30 29 28 27 27 26 25 25 24 20 18 17 15
6 6 4 7 5 4 8 8 11 9 9 12 19 12 9 11 9 25 29 29 26 22 13 8 15 19 23 27 26 25 25 24 26 26 27 29 32 30 28 29 30 28 27 27 24 22 20 19 17
7 5 9 9 6 6 5 6 9 11 10 15 17 10 8 7 19 28 32 30 25 22 18 14 4 15 19 20 22 21 21 21 22 21 24 26 31 31 27 29 30 30 30 30 28 26 24 21 17
6 9 10 10 8 8 6 10 7 9 11 15 12 9 8 15 17 26 31 30 29 25 21 15 13 8 7 13 14 17 17 19 19 20 20 23 25 29 28 28 29 31 32 31 30 29 26 24 21
4 8 10 9 9 10 10 9 9 12 14 18 12 6 16 16 17 25 25 25 26 31 29 27 21 14 3 1 7 10 10 10 15 14 17 19 21 26 30 27 27 31 35 35 33 29 28 24 22
8 9 10 8 7 6 8 10 15 17 14 11 2 14 14 13 15 18 20 23 25 26 29 30 27 20 16 5 5 2 1 5 8 14 15 15 18 21 27 29 26 30 33 33 33 33 30 23 31
9 9 9 9 7 7 6 7 9 11 7 15 17 16 16 13 10 9 17 23 25 30 30 30 27 25 20 13 7 3 1 2 3 2 7 11 15 15 20 26 28 27 32 34 34 37 36 28 35
8 6 3 3 3 4 8 7 2 10 3 14 13 12 10 9 9 9 15 20 23 27 28 29 27 25 20 16 15 12 11 8 7 4 5 8 11 19 18 23 27 28 30 35 37 39 40 33 29
2 5 4 4 6 6 8 5 4 7 11 9 9 9 9 8 8 9 13 18 22 26 27 26 28 29 24 20 15 13 12 12 10 10 5 5 8 13 19 19 23 28 28 32 33 37 40 38 35
4 4 7 8 3 3 7 4 3 4 7 6 7 9 8 8 8 10 16 19 24 25 26 27 26 27 26 26 22 17 13 12 12 12 12 10 9 10 13 16 21 23 28 29 32 33 38 41 39
2 3 4 3 2 5 7 6 6 3 11 11 13 10 9 8 7 8 9 16 20 21 21 22 24 25 23 21 21 23 18 19 16 14 13 12 12 11 11 14 16 20 26 28 28 33 36 41 42
5 3 3 5 2 7 5 7 5 5 13 15 14 11 9 8 7 7 11 14 15 15 16 17 19 21 22 22 21 19 22 25 23 21 17 14 13 12 11 11 13 16 21 25 27 29 34 38 42
2 3 1 2 2 1 5 6 10 8 10 11 12 10 8 7 6 6 10 11 10 10 12 13 15 18 19 18 18 22 26 24 21 21 21 20 19 17 15 14 14 14 17 22 25 28 30 34 37
2 1 2 0 3 5 5 5 7 8 9 11 10 8 7 6 6 6 8 8 7 8 9 11 11 14 15 16 18 20 22 21 21 24 23 23 22 21 20 17 15 15 15 18 22 27 30 30 34
2 3 4 4 5 3 9 7 5 7 8 9 7 6 4 3 2 2 5 6 6 7 9 9 10 13 16 17 16 16 17 18 22 23 22 22 22 22 21 20 19 17 16 16 20 24 27 32 33
7 11 6 4 6 6 11 13 5 9 7 7 6 6 6 4 3 3 5 6 7 7 9 9 10 12 14 14 13 14 16 19 20 23 23 23 23 23 23 23 21 19 16 16 20 22 23 29 34

GFSSGP_925_spd_027.txt.gz
Wind_Speed
6 7 10 4 4 5 4 2 3 6 3 1 0 2 3 2 3 3 7 16 8 19 22 27 26 25 24 22 19 17 15 14 13 12 11 10 10 11 10 7 5 5 4 4 3 5 4 6 6
6 7 2 2 4 3 5 3 5 4 4 1 2 1 1 1 3 5 7 12 11 20 21 28 27 25 22 20 19 18 17 14 13 12 13 11 11 11 11 9 8 6 4 4 4 3 4 4 3
7 5 3 3 3 3 2 2 2 4 4 2 3 1 1 2 4 10 5 11 13 20 18 27 27 26 24 22 20 19 18 17 15 15 14 14 13 12 12 11 9 6 5 4 3 2 1 2 2
5 5 4 4 2 2 3 2 3 2 2 2 2 4 3 2 3 6 8 10 16 17 18 23 26 24 24 23 22 20 20 18 17 15 13 12 11 12 11 11 8 8 7 5 3 3 3 3 2
2 3 3 2 4 1 4 4 2 2 2 3 3 3 4 4 8 8 8 10 16 17 17 17 25 25 24 23 21 20 20 19 18 17 16 15 15 13 10 9 9 9 8 7 5 4 4 3 2
4 3 4 1 5 2 2 4 2 3 3 1 2 1 1 6 5 7 8 9 14 18 17 18 20 26 25 25 23 21 20 19 19 19 19 18 17 13 12 8 11 10 9 7 7 5 5 4 6
2 3 3 3 4 5 2 1 3 2 5 1 1 1 1 2 6 8 7 7 13 17 20 20 22 23 26 26 25 24 22 20 20 19 20 19 17 15 13 9 12 12 10 9 8 7 6 6 7
3 3 2 3 1 3 3 1 3 2 5 0 1 2 3 6 12 9 8 9 12 17 21 21 21 23 25 26 25 24 23 22 21 20 22 20 17 16 14 11 12 11 10 10 9 8 7 7 7
3 4 2 3 5 3 4 4 5 4 3 2 4 5 6 6 11 8 8 11 13 17 20 23 22 23 24 29 29 27 25 24 23 22 25 22 21 20 18 14 14 12 11 11 10 10 9 8 7
4 3 5 2 0 3 3 1 3 5 7 7 7 6 1 11 10 10 12 15 16 19 21 24 24 25 24 27 32 30 29 27 26 25 25 25 23 21 18 14 15 15 15 14 12 11 10 9 9
4 5 3 6 5 2 3 7 5 5 5 9 10 7 9 6 10 16 17 20 21 20 22 26 27 25 24 24 28 30 30 30 28 28 28 27 25 22 20 17 17 18 18 17 15 13 11 10 9
3 7 5 5 4 4 3 2 8 5 13 8 12 9 6 10 10 12 18 18 20 22 22 26 28 28 28 27 27 27 28 29 30 29 29 28 27 24 22 21 19 20 21 20 18 14 13 11 9
4 3 4 6 8 8 4 5 6 11 16 11 13 12 11 8 10 15 19 18 17 16 22 22 27 30 29 30 29 29 29 29 29 29 30 30 30 27 23 23 22 22 22 22 20 18 16 14 13
2 2 5 7 10 7 6 6 3 10 7 10 8 8 7 8 13 19 25 21 19 14 14 19 22 30 30 31 31 30 26 26 27 31 30 30 33 31 28 27 25 24 24 24 23 21 19 17 16
2 5 7 10 5 7 4 3 8 12 7 10 9 6 8 12 19 18 19 23 23 21 19 9 17 23 31 30 29 30 28 23 24 27 30 31 31 33 34 31 28 26 25 24 23 22 20 19 18
4 1 3 5 3 3 2 7 9 11 7 13 13 7 7 11 17 21 23 22 22 21 20 17 6 15 25 27 26 26 27 24 26 23 24 29 30 31 32 32 29 27 26 26 27 26 23 22 21
2 3 5 7 2 3 3 6 9 10 8 14 9 7 11 11 17 23 26 27 26 23 21 18 16 2 14 21 21 22 22 25 19 23 22 24 26 28 29 29 27 26 27 29 29 28 26 25 22
5 4 4 5 4 2 4 9 9 12 12 13 7 9 11 12 12 20 27 32 31 28 26 24 23 17 7 3 10 10 13 17 20 17 20 22 23 25 27 27 25 27 29 30 29 28 27 26 22
3 3 4 5 9 5 9 6 10 10 10 10 7 13 10 11 13 21 28 33 33 34 32 30 27 26 19 12 4 2 1 6 12 15 16 17 19 21 26 26 26 28 31 32 31 29 27 25 22
4 4 6 5 5 2 7 9 13 14 3 4 13 10 8 9 11 20 26 32 34 33 32 31 29 27 23 19 14 10 7 8 2 7 10 14 15 17 21 26 26 28 30 31 32 31 29 27 27
3 4 5 8 3 4 4 6 8 3 12 13 11 10 11 11 12 13 22 25 28 33 34 33 31 28 26 22 14 13 11 10 14 10 6 8 12 11 17 22 25 25 28 32 33 34 32 30 32
5 3 4 3 2 3 3 5 4 2 7 8 7 8 9 11 12 13 17 21 26 29 30 33 34 33 30 25 23 24 22 18 16 17 11 7 5 7 9 15 20 23 24 29 32 33 35 31 30
7 2 2 3 4 2 5 0 7 9 5 4 6 9 10 9 11 10 15 20 25 27 29 29 30 32 32 31 28 24 23 21 19 15 12 12 10 11 12 11 14 17 21 23 28 32 35 37 34
3 2 4 2 3 1 5 5 5 4 8 6 7 9 10 9 8 12 16 19 22 23 26 28 29 29 29 29 29 28 26 24 22 22 21 18 15 12 11 12 10 12 20 22 23 27 32 37 40
4 4 3 4 1 5 2 2 7 5 5 12 13 10 7 7 7 7 11 17 22 24 25 25 26 26 24 25 27 26 25 25 25 24 22 21 20 19 15 16 12 11 11 16 21 22 29 33 38
5 5 4 5 3 4 7 5 4 9 16 17 13 9 7 6 6 7 11 14 17 19 20 21 23 22 22 22 23 21 21 22 22 21 22 21 21 20 19 17 17 13 10 13 16 21 23 27 33
4 4 3 2 1 3 4 5 8 9 12 12 10 8 7 6 6 6 9 11 12 13 15 16 17 18 20 20 20 21 20 20 20 20 20 22 22 21 20 18 19 17 14 14 15 18 21 24 27
2 1 2 2 1 4 5 4 4 5 10 8 6 7 6 5 6 6 9 10 10 9 10 11 12 15 16 15 16 17 19 21 21 20 21 21 20 22 21 20 19 20 19 16 15 18 20 23 26
1 1 2 2 4 4 2 5 4 6 11 10 8 8 8 7 6 6 9 11 9 7 7 8 6 8 10 11 11 13 15 16 19 21 22 20 21 24 25 23 21 21 21 19 18 18 21 22 24
6 6 5 3 5 3 3 11 3 8 10 9 9 8 7 6 6 6 10 11 8 7 6 4 2 4 9 10 11 13 15 17 17 20 22 22 21 22 24 28 29 27 25 22 20 21 22 23 25

GFSSGP_925_spd_030.txt.gz
Wind_Speed
8 8 6 4 4 5 2 2 1 1 2 2 1 2 1 1 2 3 2 15 7 17 26 28 27 26 24 22 19 16 13 12 11 11 12 12 12 12 9 6 4 4 4 4 4 3 3 6 7
8 6 3 2 5 4 4 4 1 2 3 2 1 2 2 0 2 2 7 17 8 17 24 29 27 27 26 23 20 18 16 14 13 12 11 10 10 12 10 8 6 4 3 4 3 3 4 5 5
6 4 3 4 4 4 3 3 2 2 1 1 2 0 1 2 2 8 3 15 12 21 22 29 28 27 25 23 21 19 17 15 14 13 13 11 11 10 10 10 9 5 4 4 3 2 2 2 3
6 6 4 4 1 2 6 5 4 2 2 2 3 1 3 1 2 5 10 12 14 21 22 25 28 27 25 23 21 20 19 17 15 14 15 15 14 13 11 10 7 4 5 5 4 4 3 3 3
4 3 4 3 3 3 1 3 2 2 1 1 1 1 4 3 4 6 10 12 15 20 20 22 28 27 24 23 21 20 19 18 16 17 14 14 13 12 12 10 9 7 7 6 6 5 5 4 3
4 3 4 0 4 3 3 2 2 2 2 3 3 3 4 2 4 6 9 10 13 16 19 19 24 26 25 25 23 21 21 20 18 17 16 16 15 13 11 9 10 9 8 7 7 7 5 2 4
5 4 3 3 3 2 3 1 3 2 2 1 2 2 3 5 8 8 7 7 11 14 16 18 20 25 25 24 24 22 21 21 21 20 19 18 17 14 12 9 9 9 8 8 8 7 4 5 6
4 4 1 2 3 3 6 6 0 2 2 3 4 2 4 3 8 8 8 8 10 15 18 19 21 23 26 26 25 24 23 22 21 20 20 20 19 17 15 11 9 11 11 10 10 8 7 7 7
3 4 1 3 2 3 4 6 6 3 2 3 3 3 4 6 10 8 9 11 14 17 21 22 22 24 26 27 26 24 24 23 22 21 20 22 21 19 17 14 11 12 12 11 10 9 8 8 8
4 3 6 3 2 2 3 0 4 4 7 6 4 4 3 3 10 11 13 16 17 20 22 25 25 24 25 27 28 28 27 26 25 23 22 24 22 21 21 17 14 14 14 14 12 10 10 9 10
3 4 3 3 4 3 3 5 2 2 5 8 11 4 5 5 11 14 20 22 23 22 22 25 27 27 26 27 28 31 30 28 27 25 24 24 24 23 22 19 16 15 15 16 15 14 13 12 11
1 6 5 4 1 3 3 4 7 5 10 5 9 7 5 9 9 8 13 19 18 19 22 25 28 28 28 27 27 27 34 32 31 29 27 26 28 26 25 22 19 18 19 19 18 17 14 15 13
4 4 3 6 9 5 3 8 5 9 11 9 9 6 7 6 12 15 17 16 13 8 10 17 27 30 30 28 27 26 28 31 30 30 30 27 29 29 27 24 22 21 21 21 21 19 17 16 14
0 3 6 7 8 5 5 3 5 9 0 11 5 10 9 10 15 17 24 22 20 18 16 9 16 28 32 30 28 28 27 26 25 24 27 28 29 29 27 26 23 23 22 22 22 21 20 18 16
2 5 7 7 3 4 5 2 6 11 6 9 7 8 9 12 19 18 19 20 21 18 18 14 7 16 29 31 29 28 27 25 25 25 24 28 28 28 30 30 29 26 23 22 22 21 21 20 19
2 2 3 4 2 1 3 8 8 9 6 7 8 8 10 12 16 20 21 20 20 18 20 20 10 4 14 24 26 25 23 21 21 21 23 26 28 28 27 32 32 28 26 24 24 23 23 21 20
3 3 4 8 4 2 2 6 8 10 6 8 7 7 8 9 17 22 24 23 23 22 22 23 21 10 2 10 15 16 16 15 15 16 18 20 23 24 27 28 28 28 27 26 25 25 24 24 22
5 4 5 6 3 2 6 9 9 15 5 5 9 7 9 11 11 17 24 26 26 25 25 27 27 23 15 7 3 3 6 8 10 11 14 15 18 20 23 24 25 26 25 25 26 28 27 26 23
3 4 5 4 7 2 8 5 13 9 7 7 7 8 9 11 12 18 23 29 30 32 32 32 31 30 24 19 11 11 13 8 3 4 5 6 9 12 17 20 22 22 24 26 28 29 28 26 21
4 5 6 6 5 1 7 9 12 6 5 6 9 8 9 8 9 16 21 29 33 34 35 35 33 30 27 23 19 14 12 20 21 16 14 10 5 7 14 15 17 21 23 25 27 29 27 24 22
5 5 5 7 5 3 4 6 7 5 9 12 10 10 8 8 8 9 17 24 30 34 35 35 34 33 29 24 18 14 13 17 20 20 18 19 15 11 9 11 13 16 20 23 25 28 29 26 25
5 6 6 4 3 3 3 5 6 3 6 8 7 7 6 7 6 9 15 22 28 29 31 33 35 36 34 29 28 27 25 20 18 18 17 15 14 13 11 11 14 14 13 17 22 26 30 30 26
7 4 3 1 2 1 3 0 6 6 4 5 5 6 6 6 6 7 13 20 23 27 28 30 31 33 32 33 33 31 29 24 22 20 18 17 15 14 12 11 10 11 15 16 17 22 26 29 31
4 4 5 4 3 2 6 6 5 4 5 7 6 6 6 6 5 10 15 18 21 22 25 27 29 30 29 30 30 30 29 28 29 29 30 27 23 21 19 15 14 12 13 15 16 18 22 27 30
5 5 2 3 2 5 5 3 6 7 2 13 13 8 7 6 6 6 9 14 17 21 21 23 24 26 25 26 27 27 27 28 28 28 27 29 29 29 28 25 20 16 15 16 16 16 17 21 26
5 7 5 6 3 4 5 5 3 4 7 11 8 8 7 6 5 5 8 11 13 16 18 20 22 22 23 24 24 24 24 25 25 24 25 26 26 26 27 26 25 22 19 17 16 17 18 17 20
4 4 2 5 2 3 4 1 3 3 5 6 7 6 7 7 5 6 8 10 11 13 15 16 16 18 18 18 19 20 19 20 20 21 22 23 23 24 24 24 26 26 25 22 20 18 18 19 21
4 5 3 2 2 5 5 5 5 8 9 7 7 7 7 6 7 5 8 10 10 9 10 10 12 13 13 14 15 14 16 18 19 21 22 23 23 22 24 25 25 25 24 25 25 24 21 20 21
2 2 2 3 5 5 2 6 3 9 12 13 10 10 9 9 7 6 11 11 10 8 7 7 8 9 10 11 12 14 16 17 17 19 20 22 24 25 25 28 28 28 29 26 26 26 28 28 26
3 6 6 4 5 3 3 11 2 8 12 10 10 10 9 5 7 8 13 12 11 10 9 6 5 4 6 6 7 9 12 15 18 20 22 24 26 27 28 29 29 30 32 32 32 32 29 29 31

GFSSGP_925_spd_033.txt.gz
Wind_Speed
10 8 5 3 4 5 2 1 2 1 2 1 1 3 2 3 3 3 2 16 4 17 26 26 25 23 22 20 17 15 13 12 10 9 9 9 10 9 7 5 2 2 3 4 5 3 4 5 6
8 5 3 2 5 4 4 3 2 1 2 1 1 2 2 2 1 2 3 14 6 15 22 27 25 23 22 21 18 15 14 12 11 10 10 10 10 9 6 3 2 1 1 2 2 2 3 3 4
3 4 4 4 4 3 4 3 3 3 2 1 1 1 2 2 1 2 4 15 8 14 20 27 26 25 24 22 19 17 14 13 11 10 10 9 8 8 7 6 4 2 1 1 0 1 0 0 1
3 6 4 5 2 3 3 3 3 0 2 3 2 2 3 2 2 2 3 11 11 15 18 23 27 26 24 22 20 18 15 13 12 11 10 10 9 8 8 7 4 3 3 2 2 4 3 3 3
5 3 4 4 3 4 2 2 4 2 2 2 2 3 4 2 1 3 6 7 10 16 18 20 26 26 24 23 21 19 17 15 14 11 12 12 12 11 9 7 6 5 3 4 4 6 6 5 5
4 3 4 1 2 4 3 2 1 2 1 3 1 2 4 4 1 2 5 6 9 14 18 18 23 27 26 25 23 21 20 18 16 14 15 13 13 11 10 8 8 6 6 5 6 7 6 5 3
5 4 3 2 3 3 3 7 2 3 1 2 1 2 4 5 5 5 6 5 8 12 15 17 20 25 25 23 22 21 21 20 18 17 16 16 15 12 11 9 8 7 7 6 8 7 7 4 3
4 4 2 2 2 1 5 7 1 2 2 5 4 2 4 3 5 6 5 6 8 13 15 17 18 22 25 25 24 23 21 20 19 18 17 17 17 15 13 11 9 8 8 8 10 8 6 5 5
3 4 1 3 2 2 4 6 1 3 2 3 2 1 4 9 3 6 7 9 11 14 17 19 20 22 24 26 26 24 22 21 20 20 18 17 19 17 15 13 11 9 9 9 10 9 7 7 7
4 4 7 3 2 2 4 1 4 4 7 2 2 7 6 10 5 5 7 11 12 16 17 19 22 23 24 25 25 25 22 22 22 21 19 19 19 20 18 15 13 10 10 10 11 9 10 9 9
2 4 5 4 4 1 2 3 2 3 3 7 7 8 8 7 8 9 13 14 17 17 17 19 22 25 25 26 25 25 26 24 25 23 21 20 20 22 20 18 15 13 12 12 13 12 12 10 10
0 4 3 2 3 1 3 3 5 4 9 0 7 6 5 9 13 16 16 18 17 10 9 12 19 26 27 27 26 24 26 28 25 25 23 22 22 23 21 19 18 15 14 14 15 15 14 12 11
2 3 3 6 6 5 1 6 5 9 12 6 6 10 10 10 13 15 16 18 19 19 16 12 12 23 28 28 27 24 23 21 26 26 26 24 24 24 24 22 20 18 16 17 18 17 16 15 14
3 3 6 7 8 3 4 3 3 6 3 9 9 9 9 12 16 18 23 22 22 20 21 19 11 13 24 28 27 24 21 18 20 22 24 27 26 25 22 26 23 20 18 19 19 18 17 16 16
1 5 8 6 2 5 6 0 7 8 7 8 8 8 8 12 20 19 20 21 21 20 20 20 17 7 13 21 23 22 19 17 15 15 15 15 22 24 22 23 25 23 23 20 19 19 19 19 19
3 3 4 4 2 1 3 7 6 6 7 5 8 8 9 12 16 22 22 22 22 22 24 22 18 13 3 8 13 14 14 14 14 15 14 15 17 21 22 22 23 23 25 24 21 20 21 21 22
5 3 4 8 2 2 3 5 7 4 7 7 7 7 8 9 18 23 24 23 24 25 26 28 25 22 16 11 6 4 2 1 4 7 10 12 15 17 18 20 21 22 25 25 22 21 21 22 22
6 4 5 5 0 3 3 8 12 8 4 8 8 7 8 10 11 18 23 24 25 26 27 28 29 26 24 26 23 20 16 15 13 11 8 6 7 11 15 18 19 20 20 23 22 21 21 21 20
2 4 4 3 5 1 6 5 12 8 9 8 7 7 8 8 10 19 24 27 29 31 32 32 31 30 26 20 20 25 26 24 23 23 19 14 11 9 10 11 12 13 14 16 17 18 20 20 19
2 2 5 6 4 3 6 10 3 7 5 5 8 7 7 5 7 14 22 27 32 32 34 35 34 31 28 25 23 19 17 26 27 24 25 22 21 19 16 12 11 11 11 12 13 15 18 17 17
4 5 5 8 3 1 3 6 2 5 8 10 8 6 6 6 6 8 16 23 27 31 34 35 36 34 31 28 21 20 18 23 26 27 26 25 22 20 18 18 17 13 11 12 13 13 16 18 15
4 8 7 3 3 4 1 5 6 5 5 5 5 6 6 6 5 7 12 19 22 24 27 31 33 34 32 30 32 32 31 28 24 24 23 23 22 22 21 20 20 19 16 13 11 12 13 15 20
7 4 4 2 2 3 4 1 6 6 3 5 5 5 6 5 6 6 11 15 17 21 23 27 30 30 30 29 30 31 31 27 26 27 27 28 27 27 25 21 18 17 18 18 16 14 12 12 15
5 4 6 4 3 1 7 7 4 5 3 6 5 6 6 6 5 7 10 13 16 19 22 25 27 28 27 27 28 29 29 27 27 27 29 29 28 29 29 28 26 23 20 18 17 16 17 15 14
4 5 2 4 2 5 3 1 7 4 5 10 12 9 8 7 6 5 7 10 14 17 18 21 22 24 23 25 26 27 27 26 27 26 26 26 27 28 27 26 27 27 25 23 22 20 16 17 18
6 7 5 7 3 4 2 6 5 1 4 9 11 9 7 8 7 6 8 10 12 14 15 17 18 19 20 22 23 22 22 23 23 22 22 23 23 23 23 23 23 24 25 25 23 22 21 20 18
5 5 3 5 2 3 4 4 2 3 4 4 6 7 9 8 7 8 11 11 12 12 12 13 14 16 17 18 18 19 18 19 19 19 19 20 20 21 21 23 24 23 24 26 27 26 25 22 22
4 6 4 2 2 5 4 5 5 7 10 7 7 9 8 8 7 7 11 12 11 11 11 11 12 14 14 14 14 15 15 15 15 16 18 20 20 22 23 24 24 25 25 25 27 27 27 28 27
2 2 3 3 5 6 2 6 5 11 13 14 11 9 9 8 7 6 13 13 12 11 11 10 10 10 10 10 10 10 11 13 14 16 17 19 20 21 23 24 26 28 29 29 30 30 31 31 32
3 7 7 5 6 3 1 12 5 6 11 11 10 10 7 6 7 10 15 15 14 12 11 9 8 7 6 6 5 6 8 11 15 17 18 20 22 23 24 27 29 31 33 34 35 36 35 34 34

GFSSGP_925_spd_036.txt.gz
Wind_Speed
8 7 3 4 4 5 1 1 1 2 1 1 2 3 2 2 3 3 5 10 1 14 25 23 20 17 16 14 13 10 8 7 7 6 7 9 9 6 4 3 4 4 5 6 6 7 6 6 5
7 4 3 3 5 4 4 3 1 1 1 0 2 2 3 1 1 5 1 11 1 12 22 23 21 19 17 14 12 10 8 7 6 6 6 8 8 7 4 2 3 4 5 6 5 5 4 4 4
3 3 3 4 4 4 3 3 2 3 1 2 1 1 3 1 1 2 2 9 5 12 19 22 22 19 19 17 14 12 11 9 8 7 7 6 6 5 2 1 1 3 4 3 3 3 3 3 2
2 6 4 5 2 1 2 1 3 2 2 3 1 2 3 2 1 2 1 10 6 10 15 20 22 22 21 19 17 15 13 11 9 8 8 7 5 4 3 4 2 4 6 1 2 4 4 5 3
5 3 4 4 3 3 3 2 1 1 1 2 2 2 3 3 2 2 2 4 5 8 12 17 22 22 20 19 17 16 14 12 11 10 9 10 10 8 7 5 3 4 6 4 4 5 6 6 5
4 3 5 2 2 3 3 3 1 2 2 2 2 3 3 4 1 1 2 1 4 7 12 14 20 22 21 19 19 18 16 14 13 11 11 12 10 9 7 5 5 5 8 3 4 6 6 6 3
6 4 4 4 1 3 2 6 3 1 3 2 1 3 4 5 7 1 2 2 2 6 10 13 16 21 23 22 21 18 17 16 15 13 12 12 11 9 7 6 6 6 6 5 6 7 7 5 2
5 4 3 2 1 1 3 3 3 1 2 5 0 2 4 5 8 1 2 2 3 5 9 11 13 17 21 22 19 18 18 17 16 15 14 14 13 11 9 8 7 6 6 6 7 7 7 4 2
3 4 1 3 5 2 2 4 1 3 1 5 2 2 6 11 9 3 4 4 6 6 8 11 14 16 19 21 21 19 19 18 17 16 15 14 14 14 12 10 8 7 7 7 8 8 7 4 4
5 4 6 3 2 1 2 1 2 3 6 2 3 6 16 12 13 15 16 17 16 13 9 10 14 17 18 19 19 22 21 19 17 16 15 15 14 14 14 13 11 8 8 8 8 8 9 5 5
2 4 3 2 3 0 2 3 3 2 4 2 2 7 13 19 22 20 18 17 17 16 9 8 11 17 20 20 19 18 20 19 18 18 18 17 16 15 17 15 12 11 11 9 10 12 12 9 8
1 3 4 2 2 1 2 3 4 5 2 5 6 8 8 12 15 18 19 20 20 18 17 12 9 14 20 21 20 18 18 19 20 17 19 18 17 17 17 16 14 13 12 12 13 14 14 12 10
2 2 1 3 5 5 3 4 4 8 5 9 13 14 10 11 15 16 17 17 20 21 20 17 13 9 16 21 20 16 13 13 15 19 17 18 17 18 17 17 16 15 14 13 13 17 15 14 13
1 2 6 6 2 3 4 2 2 5 4 10 11 9 8 12 15 17 23 22 22 20 21 19 16 11 7 14 17 15 10 7 8 10 14 17 19 20 20 19 17 20 17 15 16 14 14 14 15
1 4 7 3 2 4 6 1 6 4 6 9 9 8 9 13 19 19 18 18 19 19 19 19 18 14 7 3 6 7 6 5 5 6 8 9 11 13 18 19 17 18 18 17 18 16 15 16 16
3 4 3 2 2 1 4 7 2 5 8 7 8 7 7 10 14 19 19 18 19 20 22 21 20 18 16 13 12 9 6 5 6 7 6 8 11 14 17 16 15 16 17 18 21 19 17 15 15
5 3 4 8 2 2 2 6 6 4 8 7 6 7 7 8 15 19 18 18 20 21 23 25 27 26 26 24 23 21 21 20 19 17 16 15 13 9 8 10 12 13 14 16 20 19 17 15 14
6 4 4 5 1 3 1 8 9 7 7 7 6 6 6 7 8 15 17 19 22 23 24 26 25 28 31 31 30 28 27 25 25 24 21 20 19 17 17 16 14 12 10 12 12 12 13 13 14
5 4 5 3 3 2 6 7 7 4 7 7 6 6 6 6 8 15 19 21 25 28 29 29 29 27 22 24 29 31 32 29 29 26 24 24 22 21 20 19 18 18 16 13 11 10 11 12 13
3 3 5 5 3 5 4 9 3 4 3 4 7 6 5 4 6 13 20 24 27 27 30 31 29 28 29 29 27 23 26 28 26 25 23 22 20 20 21 20 20 19 17 17 17 15 12 8 10
5 6 4 7 2 1 2 7 3 4 5 5 4 4 5 5 5 6 14 19 22 27 29 30 30 29 26 25 22 21 22 24 24 25 24 24 22 20 18 18 18 19 19 18 16 15 13 12 13
5 8 6 4 3 4 1 4 4 4 5 5 5 5 6 5 3 5 9 15 18 20 24 27 28 29 28 29 29 30 31 29 25 27 26 27 27 27 26 23 22 20 19 20 20 17 13 9 11
6 5 6 4 4 1 3 1 6 4 5 6 6 5 5 5 5 5 8 12 14 17 21 24 26 28 26 27 29 32 34 30 27 26 27 28 28 29 29 28 28 28 26 24 21 19 18 15 12
9 6 7 5 3 1 8 7 3 5 4 5 6 7 8 8 7 7 8 11 14 16 18 21 24 25 25 26 28 28 28 26 26 25 25 25 25 26 26 25 25 25 25 25 23 22 21 20 16
5 6 1 3 1 5 1 2 8 7 5 7 14 12 8 6 6 6 8 9 11 14 16 18 21 24 23 25 25 24 25 24 24 23 22 22 23 24 24 23 23 23 23 22 21 21 21 20 20
6 6 5 7 4 4 1 6 6 2 4 6 11 10 7 7 6 6 7 8 9 11 13 16 18 21 20 20 21 21 21 22 21 20 20 20 20 20 19 20 20 21 21 22 21 22 21 20 19
5 4 4 6 2 2 5 4 3 1 3 5 7 8 9 8 7 7 9 10 11 11 11 12 15 17 16 17 17 18 18 17 17 16 17 17 17 17 17 19 20 21 21 22 23 24 24 24 23
3 6 4 3 1 5 4 4 5 6 8 6 8 11 9 8 8 7 13 12 11 11 11 11 12 13 13 13 14 15 14 14 14 14 16 16 17 17 18 20 21 23 24 25 26 28 28 28 28
3 3 3 4 4 5 2 5 5 7 8 14 12 11 10 9 8 7 14 13 12 12 12 12 11 11 11 10 10 10 10 10 11 13 15 17 17 19 20 23 25 28 31 31 32 32 32 32 33
1 6 6 5 5 2 2 8 3 3 10 14 13 12 7 7 8 11 17 17 16 16 15 14 12 11 9 8 7 5 5 6 8 11 13 15 16 17 20 22 26 29 31 32 33 34 34 33 34

GFSSGP_925_spd_042.txt.gz
Wind_Speed
6 4 2 2 2 2 4 4 2 2 1 3 2 4 8 6 6 4 1 6 1 10 15 17 17 16 13 12 11 9 8 8 9 10 10 11 10 8 6 7 9 10 11 12 11 10 9 9 8
3 1 0 0 2 6 6 2 4 4 3 1 1 1 3 8 4 4 3 6 1 12 16 15 18 14 12 11 11 9 8 7 7 9 9 10 8 3 5 7 8 10 10 10 9 8 8 8 7
1 2 2 1 1 5 5 3 3 3 1 0 2 2 2 4 5 3 4 6 4 11 14 14 18 15 12 12 11 10 8 7 7 7 8 7 5 4 6 6 7 9 9 9 7 6 7 7 5
1 2 2 0 8 3 3 3 1 3 2 1 1 5 4 4 4 7 4 5 4 7 13 13 16 15 15 13 11 8 7 7 5 6 6 6 6 5 4 4 6 7 10 9 6 5 7 7 5
3 1 2 5 4 3 1 0 1 2 2 3 1 4 4 5 5 7 6 4 4 5 11 13 16 15 14 13 12 10 10 8 6 5 5 7 7 6 2 3 5 7 9 10 8 7 8 8 6
1 2 3 6 5 3 2 1 1 2 2 3 2 4 4 8 8 8 7 6 5 5 7 9 16 16 13 12 12 10 10 8 6 5 5 6 7 5 1 3 5 6 7 9 10 9 8 8 6
1 1 3 6 8 5 3 1 3 3 3 4 1 4 6 11 12 6 7 8 8 6 4 4 8 15 16 13 11 10 10 8 6 6 5 6 6 3 1 2 3 5 7 9 10 11 10 8 5
2 1 5 4 8 5 3 2 1 1 3 2 3 3 4 8 10 3 6 8 8 6 4 2 3 10 15 12 14 12 10 8 7 7 6 5 6 5 3 1 2 3 6 8 10 11 13 10 6
1 3 5 7 7 6 4 5 3 2 2 3 4 4 5 8 5 3 3 7 6 5 2 2 6 9 9 14 11 14 12 11 9 9 8 6 6 6 2 1 2 4 6 10 11 12 13 12 8
1 2 4 3 4 6 4 2 2 4 2 5 4 7 6 7 8 8 8 8 9 9 6 4 5 8 10 10 12 14 12 11 10 10 8 5 4 5 4 4 5 5 3 6 9 12 14 12 9
1 1 4 3 3 2 3 1 2 2 3 2 1 5 6 8 10 10 9 9 10 10 8 8 5 7 10 10 10 11 10 9 9 7 6 7 7 5 6 6 6 6 5 5 5 10 12 11 9
2 2 2 3 4 3 3 2 2 4 2 5 7 6 5 7 9 9 9 9 10 10 10 10 7 5 8 12 12 11 10 9 7 5 3 6 7 8 10 10 8 7 6 7 7 6 7 9 9
3 3 3 3 5 4 1 5 2 5 5 7 8 7 6 7 7 7 7 7 9 10 11 11 9 6 5 11 11 10 8 6 4 2 5 8 5 6 7 10 8 8 8 8 7 7 6 6 6
1 2 3 3 3 5 6 2 4 5 8 7 5 6 7 9 9 7 9 9 11 11 12 11 10 8 2 10 11 11 12 9 6 5 5 5 1 3 4 6 9 11 10 9 9 8 7 7 7
1 4 5 6 3 5 7 4 6 12 9 6 5 5 5 7 8 9 10 10 11 11 11 11 14 12 13 15 17 19 16 13 11 10 7 5 3 2 0 1 4 7 8 8 8 8 7 7 8
2 2 4 3 4 3 7 4 7 11 9 5 4 4 3 6 7 8 9 8 9 9 10 12 16 17 20 22 24 22 19 17 17 14 13 11 11 10 7 5 3 3 4 4 5 6 6 7 8
2 6 6 3 4 3 8 3 8 5 7 6 5 4 3 5 7 8 8 8 9 9 11 14 17 20 24 27 27 27 25 22 20 18 18 17 15 14 14 14 12 10 9 7 6 3 3 4 5
6 6 5 6 2 5 6 8 11 3 6 6 5 5 5 5 7 7 8 8 9 10 13 17 20 22 25 28 29 26 24 21 18 18 17 16 16 15 15 15 14 12 12 11 9 7 7 6 8
1 4 8 3 1 3 11 13 12 6 5 7 6 6 6 6 5 7 8 9 10 11 13 15 17 15 14 15 15 16 18 17 18 19 19 18 17 16 14 13 12 12 14 13 12 8 8 9 13
6 9 13 5 3 5 9 14 15 10 7 7 9 9 9 8 7 8 9 10 11 12 13 14 15 14 14 13 15 15 17 18 18 19 21 21 19 19 18 17 17 16 14 16 17 16 11 10 14
11 13 12 9 2 4 6 15 19 6 6 7 8 10 11 12 11 9 10 10 10 11 12 18 19 20 20 20 22 23 20 18 17 18 22 24 23 23 23 22 21 21 19 19 19 18 18 13 12
15 13 9 7 4 10 3 8 4 8 10 11 12 13 13 12 10 11 12 11 10 10 11 14 18 20 20 20 19 17 17 19 16 16 18 21 22 22 22 22 22 22 21 21 19 20 17 16 16
6 5 10 8 10 6 8 7 4 3 11 15 15 14 13 11 10 10 11 10 9 9 11 14 18 20 20 20 20 21 22 18 16 15 17 19 20 20 20 20 20 20 19 19 19 19 18 15 13
13 7 5 2 3 9 16 13 6 7 8 12 16 16 16 14 12 11 9 8 8 8 11 14 18 20 19 22 21 21 21 18 17 13 13 13 14 15 18 18 18 17 17 17 17 16 16 14 11
6 10 4 5 6 8 2 11 12 8 8 9 22 21 19 16 14 13 14 12 10 9 11 13 16 18 19 22 21 20 18 17 16 13 11 12 11 13 15 14 14 14 14 14 14 14 12 12 11
15 18 6 7 6 3 2 8 5 1 4 5 15 19 19 18 15 14 17 15 14 12 12 14 16 18 18 20 21 19 18 15 14 13 12 12 11 11 11 10 10 10 11 11 11 11 11 12 11
8 11 3 4 1 3 6 4 6 4 5 5 12 17 19 19 17 16 20 19 17 16 15 16 16 16 16 18 18 18 17 15 15 13 11 11 10 9 8 7 6 9 10 12 12 12 12 12 12
6 11 5 5 5 6 4 5 8 9 13 11 14 18 19 18 18 16 20 19 17 17 16 15 15 16 17 17 16 16 16 14 13 11 10 10 8 6 5 5 7 8 9 11 12 11 10 11 11
7 7 6 3 4 4 3 5 5 11 15 17 17 19 21 21 19 17 21 21 20 18 17 16 15 16 16 16 16 16 15 14 12 10 9 8 6 4 3 5 6 8 10 11 11 10 10 11 12
12 11 15 7 6 4 2 6 5 4 7 12 15 17 19 19 18 20 23 23 22 21 19 19 18 17 17 17 18 17 16 15 12 10 8 6 3 2 3 5 7 9 10 12 11 11 11 12 13

GFSSGP_925_spd_045.txt.gz
Wind_Speed
9 7 6 5 4 1 5 5 1 4 4 7 5 8 13 13 10 5 3 4 3 12 14 15 15 12 11 11 10 9 9 10 9 9 10 11 10 9 10 11 12 12 13 12 12 11 11 10 10
5 6 4 3 4 6 6 5 6 6 6 3 3 2 6 13 11 8 4 4 3 11 12 14 16 12 10 10 9 8 7 8 9 9 10 9 7 6 8 10 11 12 12 11 11 10 9 9 8
4 4 4 3 3 5 6 4 7 6 4 2 3 4 3 6 11 6 5 3 6 10 10 11 14 12 9 9 10 9 7 7 8 8 8 7 5 6 9 10 11 12 12 11 10 10 10 9 7
4 5 4 6 4 4 6 6 5 6 5 1 2 8 7 11 5 6 7 5 5 8 10 10 14 11 9 8 9 8 7 7 6 6 6 6 5 6 8 9 10 12 13 13 12 11 11 10 8
3 3 3 2 4 5 4 4 3 3 4 5 2 6 7 9 9 8 6 5 5 5 9 7 14 12 11 10 8 7 6 6 5 5 6 6 5 6 6 7 9 10 12 14 13 12 12 10 9
4 3 4 6 5 5 4 4 4 3 3 5 2 6 7 8 7 7 7 6 5 5 6 6 11 13 11 10 9 7 6 5 4 4 4 5 5 5 5 6 7 8 10 12 14 14 14 12 10
4 5 4 2 7 7 5 4 6 4 6 5 2 3 9 11 8 5 7 8 8 6 5 3 5 10 11 10 9 8 7 6 4 2 2 3 6 4 3 5 5 7 9 11 13 15 14 12 10
3 4 4 6 8 7 7 6 2 4 6 3 3 3 7 9 5 3 6 7 7 7 5 3 4 8 9 9 10 10 7 6 4 4 4 4 7 5 3 4 5 7 9 12 13 15 15 12 9
2 4 6 5 8 5 6 8 3 1 3 3 4 5 4 6 3 2 3 5 4 5 5 3 1 5 5 10 7 12 9 8 5 6 7 6 5 6 5 5 2 3 5 9 11 15 15 13 11
3 4 2 3 2 4 7 6 6 5 6 5 5 7 6 6 5 4 3 2 4 6 5 5 3 3 6 7 10 7 10 10 8 9 8 7 5 6 6 2 2 4 4 5 6 9 13 11 8
1 4 2 3 3 1 5 5 2 5 6 4 2 6 5 6 7 6 5 6 7 7 6 7 6 4 4 7 8 11 10 9 7 7 5 6 5 5 5 3 2 3 2 3 5 6 4 9 7
5 2 2 2 3 2 5 0 4 5 5 6 7 6 4 5 5 6 6 7 8 8 8 8 7 4 3 6 8 8 7 6 2 3 3 2 1 2 4 4 4 4 2 2 4 5 5 6 8
6 3 3 3 4 4 1 7 7 6 6 6 7 5 4 4 4 4 5 6 8 9 10 10 8 5 2 9 10 10 10 8 8 5 4 2 3 2 1 1 3 3 3 2 2 1 3 3 4
2 4 5 6 8 6 6 10 3 7 7 6 5 4 3 4 4 3 6 7 9 9 10 9 10 7 3 8 13 14 12 9 7 9 7 5 4 2 2 0 1 5 4 4 5 5 5 6 5
2 6 9 11 9 5 7 11 12 10 11 9 6 4 2 3 5 6 6 6 7 7 7 8 9 7 12 16 19 20 16 15 14 13 13 11 10 8 5 3 2 2 3 5 5 5 6 7 7
4 4 8 8 8 4 9 12 9 11 12 10 6 4 1 3 3 4 5 5 6 6 7 9 11 13 17 22 24 24 22 21 19 18 17 16 14 12 12 12 11 9 6 3 3 3 5 5 7
8 10 9 5 10 5 11 3 9 12 11 9 7 6 4 4 3 2 3 4 6 7 8 12 14 18 23 26 27 26 24 22 20 18 16 16 17 15 15 15 14 14 13 13 11 11 8 8 8
10 11 9 10 7 9 11 13 9 11 12 11 9 8 7 6 3 3 4 5 6 8 10 13 16 21 26 27 26 25 22 20 17 16 16 15 15 14 13 14 14 13 13 13 11 10 11 11 13
8 10 12 8 4 4 13 15 12 14 12 12 11 10 9 7 5 4 5 7 9 9 11 13 20 21 21 21 19 17 17 17 17 18 17 17 16 15 15 14 14 14 17 16 16 12 12 14 21
13 15 16 13 4 4 12 17 15 14 18 16 14 12 11 9 8 7 7 7 8 9 10 11 10 9 8 10 13 14 16 17 18 18 20 20 19 18 18 17 17 15 15 18 19 19 12 14 20
16 16 14 14 2 10 12 19 22 24 15 9 10 11 10 11 11 9 9 9 9 9 9 11 11 10 11 13 17 20 20 18 17 16 19 20 20 21 21 20 19 19 19 20 20 19 19 14 15
16 14 14 12 7 10 6 10 11 11 16 16 14 14 14 13 12 11 12 12 11 9 10 12 12 13 11 10 11 12 15 18 15 16 18 19 19 19 19 19 18 19 19 19 18 18 17 16 15
8 2 7 11 14 15 18 9 13 7 14 18 18 17 16 15 14 14 15 14 12 11 11 12 13 13 12 13 15 18 20 19 16 17 19 18 18 17 17 17 17 17 17 17 17 18 18 15 12
10 5 2 3 8 12 18 16 14 13 14 13 18 19 19 18 17 18 16 14 12 11 12 12 13 13 13 12 12 15 18 17 18 15 14 12 12 13 14 15 15 15 15 15 14 13 13 12 11
12 7 4 5 6 8 1 13 17 2 5 9 21 21 20 18 17 15 17 16 14 12 12 12 13 14 15 16 16 16 15 14 15 13 12 12 11 10 12 12 12 12 12 12 11 11 10 11 10
18 17 6 6 6 5 2 9 7 3 7 4 15 19 18 19 16 16 19 18 16 14 13 13 14 14 14 15 15 16 16 13 12 11 12 12 11 10 9 9 9 8 8 8 8 8 8 9 9
7 12 13 4 2 4 7 10 7 7 7 7 16 19 20 19 17 17 22 20 18 16 14 14 14 14 14 15 15 14 15 15 14 13 12 11 10 9 8 6 5 5 6 7 7 8 8 10 10
9 8 6 6 6 8 9 14 10 9 15 14 18 19 18 18 18 17 22 23 21 19 17 15 14 15 15 15 15 15 14 13 14 12 11 10 10 7 5 4 3 3 4 6 6 8 8 9 9
7 9 8 6 9 4 5 7 9 13 16 20 18 18 20 21 20 18 22 24 23 21 20 19 19 19 18 16 16 16 16 14 14 13 12 10 8 7 5 2 1 2 4 6 6 6 8 9 10
17 14 20 6 6 6 4 11 3 3 11 16 17 17 19 20 19 17 23 24 23 24 23 23 21 20 19 18 18 16 15 15 14 13 12 11 9 7 6 2 1 2 4 6 6 6 8 9 10

GFSSGP_925_spd_048.txt.gz
Wind_Speed
7 11 9 5 2 3 5 3 3 4 8 6 4 9 12 12 6 5 5 10 6 15 15 16 13 12 12 12 12 12 11 11 10 11 12 12 13 14 15 15 16 16 15 16 15 13 13 13 12
7 10 4 3 2 5 4 6 9 8 7 5 3 6 11 9 7 9 8 7 9 13 11 13 13 11 11 11 10 10 10 10 11 11 11 11 11 12 14 15 16 16 14 14 14 13 12 11 10
9 6 2 2 2 5 5 7 8 7 3 2 4 9 6 5 9 6 7 7 11 13 12 11 13 11 10 9 9 9 9 10 10 10 10 10 9 11 12 13 14 15 15 14 13 12 12 10 9
6 4 3 1 7 6 9 8 9 8 5 5 6 9 7 13 6 6 8 8 11 11 11 11 11 10 8 6 7 7 7 8 9 9 8 7 9 9 11 12 14 15 16 15 15 14 13 11 8
4 3 3 1 8 4 8 7 1 6 4 4 2 6 6 10 11 10 9 9 9 10 7 7 12 10 9 7 7 6 6 7 7 7 7 7 8 8 10 11 13 14 15 17 16 15 14 13 11
3 1 3 3 6 6 6 5 4 4 7 2 6 8 4 8 10 9 10 10 9 10 8 4 12 11 10 8 6 5 5 6 6 6 6 5 7 8 9 10 11 13 16 17 18 16 14 13 12
3 2 6 6 7 5 6 3 3 4 5 6 6 6 6 10 6 9 10 10 12 9 7 6 3 10 8 8 7 6 6 6 5 5 5 6 7 7 7 8 10 12 15 16 17 18 16 14 13
3 1 4 3 5 6 6 5 5 6 5 5 6 2 5 4 5 8 10 10 8 9 8 8 6 7 7 6 7 8 8 6 5 5 5 7 8 7 7 7 8 12 12 14 17 17 16 15 13
2 2 3 3 4 5 7 5 0 1 4 6 5 5 5 4 7 9 10 10 9 7 4 2 6 5 5 9 5 9 8 6 4 3 4 5 6 7 8 5 7 9 8 9 11 15 16 15 14
1 2 6 7 6 5 8 5 9 4 7 5 7 9 8 9 8 9 8 11 9 7 5 3 1 4 4 4 6 5 9 9 5 4 5 6 5 10 8 5 4 5 7 7 7 12 12 11 12
1 2 5 5 8 9 6 1 3 3 4 7 7 9 8 11 10 10 10 9 7 5 4 5 3 3 5 6 7 9 4 5 4 2 4 5 6 8 6 5 4 4 4 4 6 7 6 9 11
3 2 4 4 3 4 3 2 2 4 4 8 9 10 8 8 9 8 7 6 6 6 6 5 4 2 3 9 8 7 5 7 7 8 8 6 6 5 5 4 5 4 4 2 5 4 5 6 8
4 3 1 4 3 3 4 3 5 5 9 9 8 8 7 8 7 8 6 6 6 6 4 4 2 4 2 11 11 12 12 14 11 10 10 8 10 10 8 6 4 4 2 2 3 3 5 4 4
5 4 5 6 5 3 2 5 5 4 11 9 7 7 6 7 4 7 6 5 4 3 3 5 7 6 10 11 16 16 15 14 14 13 12 11 11 11 10 7 6 4 3 4 3 4 6 7 7
2 4 7 8 6 2 5 7 8 7 9 9 8 6 6 5 5 5 3 4 4 3 5 6 7 9 14 18 18 18 17 16 12 13 12 12 10 10 8 6 6 6 4 3 3 3 4 6 7
4 4 3 3 10 4 5 7 5 11 10 9 9 8 7 5 6 6 4 5 4 5 6 7 9 13 17 20 21 22 21 21 19 17 16 16 14 13 15 16 16 13 11 9 9 9 9 9 9
6 5 7 4 8 6 8 5 6 8 8 9 9 8 7 7 7 6 5 5 4 6 8 10 12 16 21 23 25 26 24 22 19 17 17 19 18 17 16 17 15 13 13 13 13 14 13 12 12
7 6 7 6 8 7 7 11 6 10 10 10 10 9 8 7 6 6 5 7 7 8 10 12 17 22 25 27 26 25 23 21 20 19 18 16 16 15 16 16 15 14 14 15 13 16 12 14 14
9 8 8 5 4 6 9 11 10 13 9 10 10 9 9 8 10 9 8 9 10 11 12 16 24 23 24 25 23 22 22 22 22 20 18 19 18 17 17 18 18 17 19 19 16 17 17 23 20
10 10 10 8 8 3 7 11 9 12 12 17 14 11 11 9 8 12 12 12 11 13 16 20 19 13 13 16 19 18 22 22 23 22 22 22 21 21 22 21 22 22 23 23 24 19 19 23 28
8 8 7 8 5 4 6 8 12 10 14 14 10 9 10 14 11 9 16 16 16 15 15 15 14 15 14 17 22 25 26 23 23 23 25 24 23 23 23 22 22 21 22 24 22 22 21 19 19
9 7 11 7 4 4 6 5 6 9 13 15 11 9 10 12 11 12 17 20 19 16 15 16 15 17 19 20 27 24 24 24 21 23 23 22 22 23 22 22 21 21 21 22 22 20 20 19 20
5 4 2 1 6 5 8 9 9 15 18 13 14 11 10 11 13 11 17 21 19 18 17 18 18 19 17 19 22 23 26 25 24 23 23 22 21 20 20 20 19 19 19 19 18 18 19 19 17
8 5 2 1 1 6 12 13 7 13 14 7 12 13 12 13 11 14 19 22 20 18 18 18 19 19 19 21 21 26 28 27 25 21 20 19 18 17 17 17 18 18 17 17 16 15 15 15 15
5 6 2 2 2 7 1 9 16 4 2 6 16 18 14 15 14 12 16 20 22 22 21 21 22 22 21 22 23 24 25 24 23 20 19 17 16 16 15 15 15 16 15 14 12 12 12 12 12
9 9 5 7 5 4 3 7 6 2 6 3 14 16 15 15 14 14 18 20 24 25 24 24 25 26 25 25 25 23 23 23 20 19 18 17 16 15 13 12 12 11 10 10 9 9 9 9 9
6 9 9 3 2 2 6 7 7 5 3 2 11 16 17 17 15 15 20 21 25 27 26 27 26 25 25 25 26 24 22 21 21 19 18 17 16 14 11 9 8 8 7 7 6 6 6 7 7
4 5 3 2 3 6 5 9 10 6 11 8 13 18 17 17 16 14 20 22 24 27 26 24 25 27 26 25 24 23 22 21 21 20 19 17 15 13 10 8 6 6 4 5 4 5 4 5 6
4 4 5 5 5 4 5 8 3 13 14 18 15 18 20 20 18 16 21 24 28 28 27 26 26 26 26 25 24 24 23 23 21 19 18 16 15 12 10 7 6 4 2 3 3 3 4 6 6
7 9 10 5 7 7 2 20 2 5 9 15 16 16 17 17 17 15 21 23 26 28 29 29 27 27 27 26 26 25 24 23 21 19 18 17 14 12 9 8 6 3 1 1 2 3 5 6 7